Weather History for KSDA - October, 2013

Change the Weather History Date:

Tuesday, October 29, 2013

  Actual Average Record
Temperature  
Mean Temperature 50 °F -  
Max Temperature 57 °F 60 °F - (-1)
Min Temperature 44 °F 37 °F - (-1)
Degree Days  
Heating Degree Days 14    
Moisture  
Dew Point 49 °F    
Average Humidity 90    
Maximum Humidity 100    
Minimum Humidity 71    
Precipitation  
Precipitation 0.00 in - - ()
Sea Level Pressure  
Sea Level Pressure 30.03 in    
Wind  
Wind Speed 10 mph (East)    
Max Wind Speed 17 mph    
Max Gust Speed 26 mph    
Visibility 6 miles    
Events Rain    
Averages and records for this station are not official NWS values.
T = Trace of Precipitation, MM = Missing Value Source: NWS Daily Summary

Daily Weather History Graph

Daily Weather History Graph

Search for Another Location

Airport or City:

Trip Planner

Search our weather history database for the weather conditions in past years. The results will help you decide how hot, cold, wet, or windy it might be!

Date:

Astronomy

Oct. 29, 2013 Rise Set
Actual Time 7:48 AM CDT 6:21 PM CDT
Civil Twilight 7:20 AM CDT 6:49 PM CDT
Nautical Twilight 6:48 AM CDT 7:21 PM CDT
Astronomical Twilight 6:16 AM CDT 7:53 PM CDT
Moon 2:38 AM CDT (10/29) 3:37 PM CDT (10/29)
Length of Visible Light 11h 28m
Length of Day
10h 32m
Waning Crescent, 25% of the Moon is Illuminated
Oct 29
Waning Crescent
Nov 3
New
Nov 9
First Quarter
Nov 17
Full
Nov 25
Last Quarter

Hourly Weather History & Observations

Time (CDT) Temp. Windchill Dew Point Humidity Pressure Visibility Wind Dir Wind Speed Gust Speed Precip Events Conditions
12:15 AM 48.2 °F - 39.2 °F 71% 30.14 in 10.0 mi East 17.3 mph 26.5 mph N/A   Clear
12:35 AM 48.2 °F - 39.2 °F 71% 30.15 in 10.0 mi East 12.7 mph 18.4 mph N/A   Partly Cloudy
12:55 AM 48.2 °F - 39.2 °F 71% 30.15 in 10.0 mi East 10.4 mph 18.4 mph N/A   Mostly Cloudy
1:15 AM 48.2 °F - 39.2 °F 71% 30.14 in 10.0 mi ENE 10.4 mph - N/A   Mostly Cloudy
1:35 AM 48.2 °F - 39.2 °F 71% 30.14 in 10.0 mi ENE 8.1 mph - N/A   Overcast
1:55 AM 48.2 °F - 41.0 °F 76% 30.14 in 10.0 mi NE 8.1 mph - N/A   Overcast
2:15 AM 48.2 °F - 41.0 °F 76% 30.13 in 9.0 mi ENE 12.7 mph - N/A Rain Light Rain
2:35 AM 46.4 °F 42.9 °F 41.0 °F 81% 30.13 in 9.0 mi NE 6.9 mph - N/A   Light Drizzle
2:55 AM 46.4 °F 40.7 °F 41.0 °F 81% 30.11 in 10.0 mi ENE 12.7 mph - N/A   Mostly Cloudy
3:15 AM 44.6 °F 40.2 °F 41.0 °F 87% 30.13 in 10.0 mi NE 8.1 mph - N/A   Mostly Cloudy
3:35 AM 44.6 °F 39.2 °F 41.0 °F 87% 30.12 in 10.0 mi NE 10.4 mph - N/A   Mostly Cloudy
3:55 AM 44.6 °F 40.2 °F 41.0 °F 87% 30.12 in 9.0 mi NE 8.1 mph - N/A   Mostly Cloudy
4:15 AM 44.6 °F 42.2 °F 41.0 °F 87% 30.12 in 10.0 mi NE 4.6 mph - N/A   Mostly Cloudy
8:55 AM 44.6 °F 40.2 °F 41.0 °F 87% 30.11 in 9.0 mi ENE 8.1 mph - N/A Rain Light Rain
9:35 AM 44.6 °F 40.2 °F 42.8 °F 93% 30.11 in 9.0 mi ENE 8.1 mph - N/A   Overcast
9:55 AM 46.4 °F 41.9 °F 42.8 °F 87% 30.11 in 9.0 mi East 9.2 mph - N/A   Overcast
10:15 AM 46.4 °F 40.4 °F 44.6 °F 93% 30.11 in 9.0 mi East 13.8 mph - N/A   Overcast
10:35 AM 46.4 °F 41.1 °F 44.6 °F 93% 30.10 in 9.0 mi East 11.5 mph - N/A   Overcast
10:55 AM 48.2 °F - 44.6 °F 87% 30.09 in 9.0 mi East 10.4 mph - N/A   Overcast
11:15 AM 48.2 °F - 44.6 °F 87% 30.08 in 9.0 mi East 10.4 mph 17.3 mph N/A   Overcast
11:35 AM 50.0 °F - 46.4 °F 87% 30.07 in 9.0 mi East 10.4 mph - N/A   Overcast
11:55 AM 50.0 °F - 46.4 °F 87% 30.08 in 9.0 mi East 9.2 mph 16.1 mph N/A   Overcast
12:15 PM 50.0 °F - 48.2 °F 94% 30.07 in 9.0 mi East 12.7 mph - N/A   Overcast
12:35 PM 51.8 °F - 48.2 °F 88% 30.05 in 4.0 mi East 8.1 mph - N/A   Overcast
12:55 PM 51.8 °F - 50.0 °F 94% 30.05 in 2.5 mi ESE 10.4 mph - N/A   Overcast
1:15 PM 53.6 °F - 50.0 °F 88% 30.03 in 9.0 mi ESE 8.1 mph 15.0 mph N/A   Overcast
1:35 PM 53.6 °F - 50.0 °F 88% 30.02 in 10.0 mi ESE 8.1 mph - N/A   Overcast
1:55 PM 53.6 °F - 51.8 °F 94% 30.01 in 6.0 mi East 10.4 mph - N/A   Overcast
2:15 PM 55.4 °F - 51.8 °F 88% 29.99 in 10.0 mi East 9.2 mph 16.1 mph N/A   Overcast
2:35 PM 55.4 °F - 51.8 °F 88% 29.98 in 10.0 mi East 9.2 mph - N/A   Overcast
2:55 PM 55.4 °F - 53.6 °F 94% 29.97 in 10.0 mi East 9.2 mph 16.1 mph N/A   Overcast
3:15 PM 55.4 °F - 53.6 °F 94% 29.97 in 10.0 mi East 9.2 mph 17.3 mph N/A   Overcast
3:35 PM 55.4 °F - 53.6 °F 94% 29.97 in 10.0 mi East 11.5 mph - N/A   Overcast
3:55 PM 55.4 °F - 53.6 °F 94% 29.97 in 2.5 mi East 8.1 mph 16.1 mph N/A   Overcast
4:15 PM 55.4 °F - 53.6 °F 94% 29.96 in 1.5 mi East 9.2 mph - N/A   Overcast
4:35 PM 55.4 °F - 53.6 °F 94% 29.97 in 1.0 mi East 9.2 mph 16.1 mph N/A   Overcast
4:55 PM 55.4 °F - 53.6 °F 94% 29.97 in 1.2 mi East 9.2 mph - N/A   Overcast
5:15 PM 55.4 °F - 53.6 °F 94% 29.96 in 1.2 mi East 10.4 mph - N/A   Overcast
5:35 PM 55.4 °F - 53.6 °F 94% 29.95 in 2.0 mi East 10.4 mph - N/A   Overcast
5:55 PM 55.4 °F - 53.6 °F 94% 29.96 in 1.8 mi East 9.2 mph - N/A   Overcast
6:15 PM 55.4 °F - 53.6 °F 94% 29.96 in 0.8 mi East 9.2 mph - N/A   Overcast
6:35 PM 55.4 °F - 53.6 °F 94% 29.96 in 1.8 mi East 8.1 mph - N/A   Overcast
6:55 PM 55.4 °F - 53.6 °F 94% 29.96 in 2.0 mi East 6.9 mph - N/A   Overcast
7:15 PM 55.4 °F - 53.6 °F 94% 29.96 in 2.0 mi East 8.1 mph - N/A   Overcast
7:35 PM 55.4 °F - 53.6 °F 94% 29.97 in 2.0 mi East 8.1 mph - N/A   Overcast
7:55 PM 55.4 °F - 53.6 °F 94% 29.97 in 2.0 mi East 6.9 mph - N/A   Overcast
8:15 PM 55.4 °F - 55.4 °F 100% 29.97 in 2.0 mi East 6.9 mph - N/A   Overcast
8:35 PM 55.4 °F - 55.4 °F 100% 29.97 in 2.0 mi East 4.6 mph - N/A   Overcast
8:55 PM 55.4 °F - 55.4 °F 100% 29.96 in 1.5 mi East 5.8 mph - N/A   Overcast
9:15 PM 55.4 °F - 55.4 °F 100% 29.96 in 1.0 mi East 5.8 mph - N/A   Overcast
9:35 PM 55.4 °F - 55.4 °F 100% 29.96 in 1.2 mi East 6.9 mph - N/A   Overcast
9:55 PM 57.2 °F - 57.2 °F 100% 29.97 in 2.0 mi ESE 6.9 mph - N/A   Overcast
10:15 PM 57.2 °F - 57.2 °F 100% 29.97 in 2.0 mi East 5.8 mph - N/A   Overcast
10:35 PM 57.2 °F - 57.2 °F 100% 29.97 in 3.0 mi East 6.9 mph - N/A   Overcast
10:55 PM 57.2 °F - 57.2 °F 100% 29.97 in 3.0 mi Variable 4.6 mph - N/A   Overcast
11:15 PM 57.2 °F - 57.2 °F 100% 29.97 in 1.8 mi ESE 5.8 mph - N/A Rain Light Rain
11:35 PM 57.2 °F - 57.2 °F 100% 29.97 in 2.5 mi East 6.9 mph - N/A   Overcast
11:55 PM 57.2 °F - 57.2 °F 100% 29.97 in 2.0 mi East 4.6 mph - N/A   Overcast